Location: Luxembourg
(49.6117°N, 6.1300°E)
Time: 14:23:22
(UTC+02:00)

Tiangong 1 - Visible Passes

Search period start: 21 September 2017 00:00
Search period end: 01 October 2017 00:00
Orbit: 303 x 329 km, 42.8° (Epoch: 21 September)

Date Brightness Start Highest point End Pass type
(mag) Time Alt. Az. Time Alt. Az. Time Alt. Az.
21 Sep 3.1 05:26:45 15° SSE 05:26:45 15° SSE 05:27:38 10° SE visible
22 Sep 2.9 05:39:56 16° SSE 05:39:56 16° SSE 05:41:03 10° SE visible
23 Sep 3.0 05:53:06 14° S 05:53:06 14° S 05:54:05 10° SSE visible
